, OR

(GMT )
Tillamook

Weather History for KTMK - January, 2013

Change the Weather History Date:

Sunday, January 6, 2013

  Actual Average Record
Temperature  
Mean Temperature 42 °F -  
Max Temperature 50 °F - - ()
Min Temperature 33 °F - - ()
Degree Days  
Heating Degree Days 24    
Moisture  
Dew Point 41 °F    
Average Humidity 92    
Maximum Humidity 100    
Minimum Humidity 76    
Precipitation  
Precipitation 0.13 in - - ()
Sea Level Pressure  
Sea Level Pressure 30.16 in    
Wind  
Wind Speed 3 mph (SSE)    
Max Wind Speed 10 mph    
Max Gust Speed -    
Visibility 8 miles    
Events Fog , Rain    
Averages and records for this station are not official NWS values.
T = Trace of Precipitation, MM = Missing Value Source: NWS Daily Summary

Daily Weather History Graph

Daily Weather History Graph

Search for Another Location

Airport or City:

Trip Planner

Search our weather history database for the weather conditions in past years. The results will help you decide how hot, cold, wet, or windy it might be!

Date:

Astronomy

Jan. 06, 2013 Rise Set
Actual Time 8:54 AM MST 5:48 PM MST
Civil Twilight 8:20 AM MST 6:21 PM MST
Nautical Twilight 7:43 AM MST 6:59 PM MST
Astronomical Twilight 7:08 AM MST 7:34 PM MST
Moon 3:09 AM MST (1/6) 1:24 PM MST (1/6)
Length of Visible Light 10h 01m
Length of Day
8h 53m
Waning Crescent, 32% of the Moon is Illuminated
Jan 6
Waning Crescent
Jan 11
New
Jan 18
First Quarter
Jan 26
Full
Feb 3
Last Quarter

Hourly Weather History & Observations

Time (MST) Temp. Windchill Dew Point Humidity Pressure Visibility Wind Dir Wind Speed Gust Speed Precip Events Conditions
12:35 AM 42.8 °F 39.3 °F 42.8 °F 100% 30.19 in 10.0 mi SSE 5.8 mph - N/A   Overcast
12:55 AM 42.8 °F - 42.8 °F 100% 30.19 in 7.0 mi Calm Calm - N/A   Light Drizzle
1:15 AM 42.8 °F 41.1 °F 42.8 °F 100% 30.19 in 7.0 mi East 3.5 mph - N/A   Overcast
1:35 AM 42.8 °F 41.1 °F 42.8 °F 100% 30.19 in 7.0 mi ESE 3.5 mph - N/A   Overcast
1:55 AM 42.8 °F - 42.8 °F 100% 30.19 in 7.0 mi Calm Calm - N/A   Overcast
2:15 AM 42.8 °F - 42.8 °F 100% 30.19 in 7.0 mi Calm Calm - N/A   Overcast
2:35 AM 42.8 °F 41.1 °F 41.0 °F 93% 30.19 in 7.0 mi SE 3.5 mph - N/A   Overcast
2:55 AM 41.0 °F - 41.0 °F 100% 30.20 in 5.0 mi Calm Calm - N/A   Overcast
3:15 AM 41.0 °F - 41.0 °F 100% 30.20 in 4.0 mi Calm Calm - N/A   Scattered Clouds
3:35 AM 39.2 °F - 39.2 °F 100% 30.20 in 0.8 mi Calm Calm - N/A   Mist
3:55 AM 37.4 °F - 37.4 °F 100% 30.21 in 0.2 mi Calm Calm - N/A Fog Fog
4:35 AM 37.4 °F 33.8 °F 37.4 °F 100% 30.19 in 0.5 mi SSE 4.6 mph - N/A Fog Fog
4:55 AM 37.4 °F - 37.4 °F 100% 30.19 in 0.5 mi Calm Calm - N/A Fog Fog
5:35 AM 35.6 °F 32.8 °F 35.6 °F 100% 30.18 in 1.2 mi SSE 3.5 mph - N/A   Mostly Cloudy
5:55 AM 33.8 °F 30.8 °F 33.8 °F 100% 30.18 in 1.8 mi SE 3.5 mph - N/A   Mist
6:15 AM 35.6 °F 32.8 °F 35.6 °F 100% 30.18 in 5.0 mi SSE 3.5 mph - N/A   Clear
6:35 AM 33.8 °F 29.6 °F 33.8 °F 100% 30.19 in 5.0 mi SSW 4.6 mph - N/A   Scattered Clouds
6:55 AM 35.6 °F 32.8 °F 35.6 °F 100% 30.20 in 5.0 mi SE 3.5 mph - N/A   Mostly Cloudy
7:15 AM 37.4 °F 32.8 °F 37.4 °F 100% 30.20 in 1.2 mi SE 5.8 mph - N/A   Mostly Cloudy
7:35 AM 37.4 °F 34.9 °F 37.4 °F 100% 30.19 in 10.0 mi SE 3.5 mph - N/A   Scattered Clouds
7:55 AM 35.6 °F 32.8 °F 35.6 °F 100% 30.18 in 7.0 mi SSE 3.5 mph - N/A   Mostly Cloudy
8:15 AM 35.6 °F - 35.6 °F 100% 30.19 in 7.0 mi Calm Calm - N/A   Mostly Cloudy
8:35 AM 35.6 °F - 35.6 °F 100% 30.20 in 7.0 mi Calm Calm - N/A   Mostly Cloudy
8:55 AM 35.6 °F - 35.6 °F 100% 30.21 in 7.0 mi Calm Calm - N/A   Clear
9:15 AM 35.6 °F 30.7 °F 35.6 °F 100% 30.20 in 7.0 mi SSE 5.8 mph - N/A   Clear
9:35 AM 35.6 °F 31.7 °F 35.6 °F 100% 30.21 in 5.0 mi SE 4.6 mph - N/A   Scattered Clouds
9:55 AM 37.4 °F 33.8 °F 37.4 °F 100% 30.21 in 2.0 mi SE 4.6 mph - N/A   Mostly Cloudy
10:15 AM 39.2 °F 37.0 °F 39.2 °F 100% 30.22 in 10.0 mi SSE 3.5 mph - N/A   Scattered Clouds
10:35 AM 41.0 °F 39.0 °F 41.0 °F 100% 30.22 in 10.0 mi ESE 3.5 mph - N/A   Scattered Clouds
10:55 AM 41.0 °F - 41.0 °F 100% 30.22 in 10.0 mi Calm Calm - N/A   Scattered Clouds
11:15 AM 41.0 °F - 41.0 °F 100% 30.22 in 10.0 mi Calm Calm - N/A   Mostly Cloudy
11:35 AM 42.8 °F - 42.8 °F 100% 30.23 in 10.0 mi Calm Calm - N/A   Overcast
11:55 AM 42.8 °F - 42.8 °F 100% 30.22 in 10.0 mi Calm Calm - N/A   Overcast
12:15 PM 44.6 °F - 44.6 °F 100% 30.21 in 10.0 mi Calm Calm - N/A   Overcast
12:35 PM 44.6 °F - 44.6 °F 100% 30.20 in 10.0 mi Calm Calm - N/A   Mostly Cloudy
12:55 PM 46.4 °F - 46.4 °F 100% 30.18 in 10.0 mi Calm Calm - N/A   Mostly Cloudy
1:15 PM 46.4 °F - 42.8 °F 87% 30.18 in 10.0 mi Calm Calm - N/A   Overcast
1:35 PM 48.2 °F - 42.8 °F 82% 30.17 in 10.0 mi Calm Calm - N/A   Overcast
1:55 PM 48.2 °F - 44.6 °F 87% 30.17 in 10.0 mi Calm Calm - N/A   Overcast
2:15 PM 50.0 °F - 44.6 °F 82% 30.16 in 10.0 mi South 3.5 mph - N/A   Overcast
2:35 PM 50.0 °F - 42.8 °F 76% 30.16 in 10.0 mi South 5.8 mph - N/A   Overcast
2:55 PM 50.0 °F - 42.8 °F 76% 30.15 in 10.0 mi South 4.6 mph - N/A   Overcast
3:15 PM 50.0 °F - 42.8 °F 76% 30.15 in 10.0 mi South 5.8 mph - N/A   Overcast
3:35 PM 50.0 °F - 44.6 °F 82% 30.14 in 10.0 mi South 5.8 mph - N/A   Overcast
3:55 PM 50.0 °F - 42.8 °F 76% 30.14 in 10.0 mi South 4.6 mph - N/A   Overcast
4:15 PM 50.0 °F - 42.8 °F 76% 30.14 in 10.0 mi SSE 5.8 mph - N/A   Overcast
4:35 PM 50.0 °F - 42.8 °F 76% 30.13 in 10.0 mi South 6.9 mph - N/A   Overcast
4:55 PM 50.0 °F - 42.8 °F 76% 30.13 in 10.0 mi South 5.8 mph - N/A   Overcast
5:15 PM 50.0 °F - 42.8 °F 76% 30.13 in 10.0 mi South 6.9 mph - N/A   Overcast
5:35 PM 50.0 °F - 42.8 °F 76% 30.12 in 10.0 mi South 5.8 mph - N/A   Overcast
5:55 PM 48.2 °F - 42.8 °F 82% 30.13 in 10.0 mi South 5.8 mph - N/A   Overcast
6:15 PM 48.2 °F - 42.8 °F 82% 30.13 in 10.0 mi SSE 3.5 mph - N/A   Overcast
6:35 PM 48.2 °F - 42.8 °F 82% 30.13 in 10.0 mi South 3.5 mph - N/A Rain Rain
6:55 PM 48.2 °F - 42.8 °F 82% 30.12 in 10.0 mi ESE 3.5 mph - N/A Rain Rain
7:15 PM 48.2 °F - 42.8 °F 82% 30.11 in 10.0 mi East 3.5 mph - N/A Rain Light Rain
7:35 PM 46.4 °F 43.5 °F 42.8 °F 87% 30.10 in 10.0 mi SE 5.8 mph - 0.01 in   Light Drizzle
7:55 PM 46.4 °F 43.5 °F 42.8 °F 87% 30.11 in 10.0 mi SSE 5.8 mph - 0.01 in   Drizzle
8:15 PM 46.4 °F 42.4 °F 42.8 °F 87% 30.10 in 10.0 mi SSE 8.1 mph - N/A   Light Drizzle
8:55 PM 46.4 °F 43.5 °F 42.8 °F 87% 30.09 in 7.0 mi SSE 5.8 mph - N/A Rain Light Rain
9:15 PM 46.4 °F 43.5 °F 42.8 °F 87% 30.09 in 10.0 mi SSE 5.8 mph - N/A Rain Light Rain
9:35 PM 46.4 °F 43.5 °F 42.8 °F 87% 30.09 in 10.0 mi SSE 5.8 mph - N/A   Drizzle
9:55 PM 46.4 °F - 42.8 °F 87% 30.09 in 4.0 mi Calm Calm - N/A   Drizzle
10:35 PM 46.4 °F - 42.8 °F 87% 30.07 in 7.0 mi Calm Calm - 0.05 in Rain Light Rain
10:55 PM 44.6 °F - 44.6 °F 100% 30.06 in 7.0 mi Calm Calm - 0.06 in Rain Light Rain
11:15 PM 44.6 °F - 44.6 °F 100% 30.06 in 7.0 mi Calm Calm - 0.02 in Rain Rain
11:35 PM 46.4 °F 42.4 °F 44.6 °F 93% 30.06 in 7.0 mi South 8.1 mph - 0.04 in Rain Light Rain
11:55 PM 48.2 °F - 44.6 °F 87% 30.06 in 5.0 mi South 10.4 mph - 0.06 in Rain Light Rain